Location: Coed Ely
(51.5661°N, 3.4150°W)
Time: 19:54:25
(UTC+00:00)

COSMO-SKYMED 1 - Pass Details

Date: 28 January 2021
Orbit: 621 x 623 km, 97.9° (Epoch: 27 February)

Event Time Altitude Azimuth Distance (km) Brightness Sun altitude
Rises 18:42:39 0° 12° (NNE) 2,918 5.8 -16.4°
Reaches altitude 10° 18:44:52 10° 11° (N) 2,006 5.0 -16.8°
Maximum altitude 18:49:13 74° 288° (WNW) 654 2.7 -17.4°
Drops below altitude 10° 18:53:32 10° 203° (SSW) 1,989 5.5 -18.1°
Sets 18:55:43 0° 201° (SSW) 2,891 6.4 -18.4°
